{"data":{"norad_id":65522,"epoch":"2026-05-25T02:33:51.427872Z","epoch_age_seconds":59614,"freshness":"FRESH","line1":"1 65522U 25200C   26145.10684523  .00003718  00000+0  26154-3 0  9995","line2":"2 65522  97.4462 214.8209 0002449 137.0496 223.0922 15.05660507 40637","mean_motion":15.05660507,"eccentricity":0.0002449,"inclination_deg":97.4462,"raan_deg":214.8209,"arg_perigee_deg":137.0496,"mean_anomaly_deg":223.0922,"bstar":0.00026154,"rev_number":4063,"period_min":95.639089509572,"perigee_km":547.78235190567,"apogee_km":551.17549818575,"semimajor_km":6927.6159250457,"source":"CELESTRAK","updated_at":"2026-05-25T13:38:20.846336Z"}}